STARLINK-4358 (53225 NORAD) Tracking and Keplerian Element Data

This shows tracking and keplerian element data for the satellite.

Feedback or suggestion? Click here.




ElementValue
Catalog53225
NameSTARLINK-4358
Epoch Orbit1030
Epoch Day269.86238211
Epoch Year2022
RAAN329.698
Inclination97.6533
Eccentricity0.0001581
Argument of Perigee95.9374
Mean Anonmoly264.2031
Mean Motion15.01254347
Decay Rate6.06E-06
L11 53225U 22084AN 22269.86238211 .00000606 00000+0 51738-4 0 9994
L22 53225 97.6533 329.6980 0001581 95.9374 264.2031 15.01254347 10305

Live tracking and technical data element details for STARLINK-4358 (NORAD 53225). STARLINK-4358 can be tracked NOW for your location showing map with azimuth and elevation plus other details from your city location.

Track the satellite on the map from your city or location and see movement details for azimuth, elevation, latitude, longitude, range, height, and movement on the map or in text.







IsCatalogInMostPopularTable: catalog: 53225, numindb: 7
Update: records affected: 1



GetName: 53225 STARLINK-4358

Hit Count: updated at: Thu, 29 Sep 2022 11:10:22 GMT